Flag for U.S.A. Weather past 2 weeks in Allentown, Pennsylvania, U.S.A.

Now
80 °F

Scattered clouds.


Feels Like: 83 °F
Forecast: 63 / 80 °F
Wind: 9 mph from Southeast

Location: Lehigh Valley International Airport

Current Time: Sep 4, 2015 at 8:09:29 PM

Latest Report: Sep 4, 2015 at 6:51 PM


Visibility: 7 mi

Pressure: 30.10 "Hg

Humidity: 67%

Dew point: 68 °F

Location of AllentownLocation

Historic Weather in Allentown — Graph

°F

Allentown temperature yesterday

Maximum temperature yesterday: 92 °F (at 2:51 PM)
Minimum temperature yesterday: 66 °F (at 6:51 AM)
Average temperature yesterday: 77 °F

Past Weeks' High & Low Weather Summary

 TemperatureHumidityPressure
High92 °F (Sep 3, 2:51 PM)94% (Aug 20, 11:59 PM)30.23 "Hg (Aug 20, 11:59 PM)
Low53 °F (Aug 28, 4:51 AM)38% (Aug 25, 12:51 PM)29.81 "Hg (Aug 24, 6:51 PM)
Average73 °F68%30.02 "Hg
* Reported Aug 20 6:51 PM — Sep 4 6:51 PM, Allentown, Weather by CustomWeather, © 2015

Note: Actual official high and low records may vary slightly from our data, if they occured in-between our weather recording intervals... More about our weather records

Advertising

Allentown weather history for previous 24 hours

 ConditionsComfort  
Time TempWeatherWind HumidityBarometerVisibility
6:51 PM
Fri, Sep 4
80 °FScattered clouds.9 mph67%30.10 "Hg7 mi
5:51 PM83 °FBroken clouds.15 mph63%30.08 "Hg7 mi
4:51 PM82 °FPassing clouds.8 mph65%30.07 "Hg7 mi
3:51 PM80 °FThundershowers. Mostly cloudy.7 mph74%30.07 "Hg5 mi
2:51 PM88 °FBroken clouds.9 mph54%30.05 "Hg7 mi
1:51 PM86 °FBroken clouds.9 mph57%30.06 "Hg8 mi
12:51 PM86 °FScattered clouds.6 mph59%30.06 "Hg9 mi
11:51 AM84 °FSunny.8 mph61%30.07 "Hg9 mi
10:51 AM82 °FSunny.8 mph63%30.06 "Hg9 mi
9:51 AM79 °FSunny.8 mph67%30.05 "Hg9 mi
8:51 AM76 °FSunny.9 mph74%30.03 "Hg8 mi
7:51 AM74 °FSunny.8 mph79%30.02 "Hg7 mi
6:51 AM72 °FClear.8 mph81%29.99 "Hg7 mi
5:51 AM70 °FClear.3 mph87%29.96 "Hg8 mi
4:51 AM72 °FClear.5 mph81%29.94 "Hg8 mi
3:51 AM71 °FClear.3 mph84%29.93 "Hg8 mi
2:51 AM71 °FClear.No wind84%29.92 "Hg8 mi
1:51 AM71 °FClear.3 mph84%29.93 "Hg8 mi
12:51 AM72 °FClear.No wind84%29.91 "Hg9 mi
11:51 PM
Thu, Sep 3
71 °FClear.5 mph84%29.90 "Hg9 mi
10:51 PM73 °FPassing clouds.No wind79%29.90 "Hg10 mi
9:51 PM75 °FClear.No wind74%29.90 "Hg10 mi
8:51 PM75 °FClear.3 mph74%29.89 "Hg10 mi
Weather by CustomWeather, © 2015

See weather overviewHow to use our weather pages